Regional Weather Roundup
Issued by NWS Goodland, KS

Home | Current Version | Previous Version | Graphics & Text | Print | Product List | Glossary On
Versions: 1 2 3 4 5 6 7 8 9 10 11 12 13 14 15 16 17 18 19 20 21 22 23 24 25 26 27 28 29 30 31 32 33 34 35 36 37 38 39 40 41 42 43 44 45 46 47 48 49 50
000
ASUS43 KGLD 220508
RWRGLD

GOODLAND FORECAST AREA HOURLY WEATHER ROUNDUP
NATIONAL WEATHER SERVICE GOODLAND KS
1100 PM MDT SUN SEP 21 2014

...OFFICIAL OBSERVATIONS...

CITY           SKY/WX    TMP DP  RH WIND       PRES   REMARKS
GOODLAND KS    CLOUDY    60  43  53 SE12      30.34S
HILL CITY KS   MOCLDY    56  45  66 CALM      30.31S
IMPERIAL NEB   CLOUDY    63  42  46 SE8       30.31F
MCCOOK NEB     MOCLDY    58  45  62 E5        30.31S
AKRON CO       CLOUDY    58  42  55 SE12      30.32S
BURLINGTON CO  CLOUDY    59  39  47 SE9       30.34S
LIMON CO       PTCLDY    56  38  50 SE13      30.37S
$$

...UNOFFICIAL OBSERVATIONS...

CITY           SKY/WX    TMP DP  RH WIND       PRES   REMARKS
COLBY KS       PTCLDY    55  46  71 S3        30.35R
GOVE KS          N/A     56  32  40 MISG        N/A
NORTON KS      MOCLDY    57  39  51 CALM      30.31S
SHARON SPRINGS   N/A     56  44  64 SE8         N/A
TRIBUNE KS     PTCLDY    61  46  59 E8        30.35S
WAKEENEY KS      N/A     60  37  42 MISG        N/A
TRENTON NEB      N/A     59  32  36 S7          N/A
KIT CARSON CO    N/A     61  40  45 NE6G13      N/A
YUMA CO          N/A     60  42  51 SE9         N/A
$$


USA.gov is the U.S. government's official web portal to all federal, state and local government web resources and services.